Hourly Weather Klanino

Today, 27 July, Tuesday

Time Temperature Precipitation Wind Pressure Humidity
00:00 +21°C° 0.1 mm 1 mps 748 mmHg 81%
01:00 +20°C° 0.1 mm 2 mps 748 mmHg 82%
02:00 +19°C° 0 mm 2 mps 748 mmHg 83%
03:00 +19°C° 0 mm 2 mps 748 mmHg 84%
04:00 +19°C° 0 mm 2 mps 748 mmHg 85%
05:00 +20°C° 0 mm 2 mps 748 mmHg 82%
06:00 +21°C° 0 mm 2 mps 748 mmHg 78%
07:00 +23°C° 0 mm 2 mps 748 mmHg 75%
08:00 +25°C° 0 mm 3 mps 749 mmHg 67%
09:00 +26°C° 0 mm 3 mps 749 mmHg 59%
10:00 +28°C° 0 mm 3 mps 749 mmHg 52%
11:00 +29°C° 0 mm 4 mps 749 mmHg 49%
12:00 +29°C° 0 mm 4 mps 749 mmHg 46%
13:00 +30°C° 0 mm 4 mps 749 mmHg 43%
14:00 +29°C° 0 mm 4 mps 749 mmHg 47%
15:00 +27°C° 0 mm 3 mps 749 mmHg 51%
16:00 +26°C° 0 mm 3 mps 749 mmHg 55%
17:00 +26°C° 0 mm 2 mps 749 mmHg 59%
18:00 +25°C° 0 mm 2 mps 749 mmHg 62%
19:00 +24°C° 0 mm 1 mps 749 mmHg 65%
20:00 +23°C° 0 mm 1 mps 749 mmHg 69%
21:00 +22°C° 0 mm 1 mps 749 mmHg 72%
22:00 +21°C° 0 mm 1 mps 750 mmHg 76%
23:00 +20°C° 0 mm 1 mps 750 mmHg 80%

Tomorrow, 28 July, Wednesday

Time Temperature Precipitation Wind Pressure Humidity
00:00 +20°C° 0 mm 1 mps 750 mmHg 83%
01:00 +19°C° 0 mm 1 mps 750 mmHg 87%
02:00 +18°C° 0 mm 1 mps 749 mmHg 88%
03:00 +17°C° 0 mm 2 mps 749 mmHg 89%
04:00 +17°C° 0 mm 2 mps 749 mmHg 90%
05:00 +19°C° 0 mm 2 mps 749 mmHg 82%
06:00 +20°C° 0 mm 2 mps 749 mmHg 75%
07:00 +22°C° 0 mm 3 mps 749 mmHg 68%
08:00 +24°C° 0 mm 3 mps 749 mmHg 62%
09:00 +25°C° 0 mm 3 mps 749 mmHg 56%
10:00 +26°C° 0 mm 3 mps 749 mmHg 50%
11:00 +25°C° 0.2 mm 3 mps 749 mmHg 60%
12:00 +22°C° 0.2 mm 3 mps 749 mmHg 69%
13:00 +21°C° 0.2 mm 2 mps 749 mmHg 78%
14:00 +21°C° 0.6 mm 3 mps 749 mmHg 77%
15:00 +22°C° 0.6 mm 3 mps 749 mmHg 75%
16:00 +23°C° 0.6 mm 4 mps 749 mmHg 74%
17:00 +22°C° 0.4 mm 3 mps 749 mmHg 77%
18:00 +21°C° 0.4 mm 2 mps 748 mmHg 80%
19:00 +21°C° 0.4 mm 1 mps 748 mmHg 83%
20:00 +19°C° 0 mm 2 mps 748 mmHg 85%
21:00 +18°C° 0 mm 2 mps 748 mmHg 87%
22:00 +17°C° 0 mm 2 mps 749 mmHg 88%
23:00 +17°C° 0 mm 3 mps 748 mmHg 91%

Day after tomorrow, 29 July, Thursday

Time Temperature Precipitation Wind Pressure Humidity
00:00 +17°C° 0 mm 3 mps 748 mmHg 93%
01:00 +16°C° 0 mm 3 mps 748 mmHg 95%
02:00 +16°C° 0 mm 3 mps 748 mmHg 95%
03:00 +16°C° 0 mm 3 mps 748 mmHg 96%
04:00 +14°C° 0 mm 3 mps 748 mmHg 97%
05:00 +16°C° 0 mm 3 mps 748 mmHg 91%
06:00 +18°C° 0 mm 4 mps 748 mmHg 86%
07:00 +19°C° 0 mm 4 mps 748 mmHg 81%
08:00 +20°C° 0 mm 5 mps 748 mmHg 71%
09:00 +22°C° 0 mm 5 mps 747 mmHg 61%
10:00 +24°C° 0 mm 6 mps 747 mmHg 51%
11:00 +24°C° 0 mm 6 mps 747 mmHg 49%
12:00 +24°C° 0 mm 7 mps 747 mmHg 47%
13:00 +24°C° 0 mm 7 mps 747 mmHg 44%
14:00 +24°C° 0 mm 7 mps 747 mmHg 44%
15:00 +24°C° 0 mm 6 mps 747 mmHg 43%
16:00 +24°C° 0 mm 6 mps 747 mmHg 43%
17:00 +23°C° 0 mm 6 mps 747 mmHg 42%
18:00 +22°C° 0 mm 5 mps 747 mmHg 42%
19:00 +21°C° 0 mm 5 mps 747 mmHg 42%
20:00 +19°C° 0 mm 4 mps 747 mmHg 49%
21:00 +18°C° 0 mm 3 mps 747 mmHg 55%
22:00 +16°C° 0 mm 3 mps 747 mmHg 62%
23:00 +14°C° 0 mm 3 mps 747 mmHg 65%

30 July, Friday

Time Temperature Precipitation Wind Pressure Humidity
00:00 +13°C° 0 mm 3 mps 747 mmHg 69%
01:00 +13°C° 0 mm 3 mps 747 mmHg 72%
02:00 +12°C° 0 mm 3 mps 747 mmHg 75%
03:00 +12°C° 0 mm 3 mps 747 mmHg 77%
04:00 +12°C° 0 mm 3 mps 747 mmHg 79%
05:00 +13°C° 0 mm 4 mps 747 mmHg 72%
06:00 +15°C° 0 mm 4 mps 747 mmHg 65%
07:00 +17°C° 0 mm 5 mps 747 mmHg 58%
08:00 +19°C° 0 mm 5 mps 746 mmHg 53%
09:00 +21°C° 0 mm 6 mps 746 mmHg 48%
10:00 +22°C° 0 mm 6 mps 746 mmHg 43%
11:00 +23°C° 0 mm 7 mps 746 mmHg 40%
12:00 +24°C° 0 mm 7 mps 746 mmHg 37%
13:00 +26°C° 0 mm 7 mps 746 mmHg 35%
14:00 +24°C° 0 mm 6 mps 746 mmHg 35%
15:00 +24°C° 0 mm 6 mps 745 mmHg 35%
16:00 +24°C° 0 mm 6 mps 745 mmHg 35%
17:00 +23°C° 0 mm 5 mps 745 mmHg 42%
18:00 +22°C° 0 mm 4 mps 745 mmHg 49%
19:00 +20°C° 0 mm 3 mps 745 mmHg 55%
20:00 +19°C° 0 mm 2 mps 745 mmHg 62%
21:00 +17°C° 0 mm 2 mps 745 mmHg 69%
22:00 +16°C° 0 mm 1 mps 745 mmHg 75%
23:00 +16°C° 0 mm 2 mps 745 mmHg 75%

31 July, Saturday

Time Temperature Precipitation Wind Pressure Humidity
00:00 +15°C° 0 mm 2 mps 745 mmHg 76%
01:00 +15°C° 0 mm 2 mps 745 mmHg 76%
02:00 +15°C° 0 mm 2 mps 745 mmHg 76%
03:00 +15°C° 0 mm 2 mps 744 mmHg 76%
04:00 +15°C° 0 mm 2 mps 744 mmHg 76%
05:00 +16°C° 0.2 mm 3 mps 744 mmHg 77%
06:00 +17°C° 0.2 mm 3 mps 744 mmHg 78%
07:00 +18°C° 0.2 mm 4 mps 744 mmHg 79%
08:00 +19°C° 0.1 mm 5 mps 744 mmHg 72%
09:00 +21°C° 0.1 mm 6 mps 744 mmHg 65%
10:00 +22°C° 0.1 mm 7 mps 744 mmHg 58%
11:00 +22°C° 0.1 mm 7 mps 744 mmHg 56%
12:00 +22°C° 0.1 mm 7 mps 744 mmHg 53%
13:00 +21°C° 0.1 mm 8 mps 744 mmHg 51%
14:00 +21°C° 0 mm 7 mps 744 mmHg 52%
15:00 +21°C° 0 mm 7 mps 744 mmHg 53%
16:00 +21°C° 0 mm 7 mps 744 mmHg 54%
17:00 +20°C° 0.3 mm 6 mps 744 mmHg 63%
18:00 +19°C° 0.3 mm 6 mps 744 mmHg 72%
19:00 +17°C° 0.3 mm 5 mps 744 mmHg 81%
20:00 +16°C° 0.3 mm 5 mps 745 mmHg 84%
21:00 +16°C° 0.3 mm 5 mps 745 mmHg 87%
22:00 +15°C° 0.3 mm 5 mps 745 mmHg 90%
23:00 +14°C° 0 mm 5 mps 745 mmHg 91%

1 August, Sunday

Time Temperature Precipitation Wind Pressure Humidity
00:00 +14°C° 0 mm 5 mps 745 mmHg 92%
01:00 +13°C° 0 mm 4 mps 745 mmHg 92%
02:00 +12°C° 0 mm 4 mps 745 mmHg 93%
03:00 +12°C° 0 mm 4 mps 745 mmHg 94%
04:00 +12°C° 0 mm 4 mps 745 mmHg 94%
05:00 +13°C° 0 mm 5 mps 745 mmHg 89%
06:00 +13°C° 0 mm 5 mps 745 mmHg 84%
07:00 +14°C° 0 mm 5 mps 745 mmHg 78%
08:00 +16°C° 0 mm 6 mps 745 mmHg 68%
09:00 +19°C° 0 mm 6 mps 746 mmHg 59%
10:00 +21°C° 0 mm 7 mps 746 mmHg 49%
11:00 +21°C° 0 mm 6 mps 746 mmHg 46%
12:00 +22°C° 0 mm 6 mps 745 mmHg 43%
13:00 +23°C° 0 mm 6 mps 745 mmHg 41%
14:00 +22°C° 0 mm 6 mps 745 mmHg 45%
15:00 +21°C° 0 mm 5 mps 745 mmHg 50%
16:00 +20°C° 0 mm 4 mps 745 mmHg 55%
17:00 +19°C° 0.6 mm 4 mps 745 mmHg 65%
18:00 +18°C° 0.6 mm 4 mps 745 mmHg 74%
19:00 +17°C° 0.6 mm 4 mps 745 mmHg 84%
20:00 +15°C° 0.1 mm 4 mps 745 mmHg 87%
21:00 +14°C° 0.1 mm 3 mps 745 mmHg 90%
22:00 +13°C° 0.1 mm 3 mps 746 mmHg 93%
23:00 +13°C° 0 mm 3 mps 746 mmHg 92%
Show more